www.pogodaiklimat.ru

Погода и климат >> Архив погоды >> Гана >> Йенди


ПОГОДА в Йенди

  • Прогноз погоды в Йенди
  • Монитор погоды в Йенди

АРХИВ ПОГОДЫ в Йенди

Время (UTC), дата Ветер
(напр.,м/с)
 
Видим.   Явления Облачность Т
(С)
Тd
(С)
f
(%)
Тe
(С)
Тes
(С)
Комфортность P
(гПа)
Po
(гПа)
Тmin
(С)
Tmax
(С)
R
(мм)
R24
(мм)
S
(см)
00 17.04 ЮЗ 3 12 км 8/0
[Ac trans Cs]
+29.5 +21.4 62 +37 +37 очень
душно
1010.7 988.5
03 17.04 ЮЗ 2 12 км 9/0
[Ac trans]
+20.8 +22.9 100 +26 +26 душно 1009.6 986.7
06 17.04 ЮЗ 2 12 км 8/0
[Ac trans Cs]
+27.4 +23.7 80 +37 +37 очень
душно
1009.8 987.4 +27.0
12 17.04 ЮЗ 2 14 км 1/1 500 м
[Cu med, cong]
+35.4 +22.1 46 +44 +65 опасность
перегрева
1010.2 988.4
15 17.04 ЮЗ 1 14 км 3/3 500 м
[Cu med, cong Ci sp]
+38.6 +22.9 41 +48 +58 опасность
перегрева
1006.6 985.1
18 17.04 ЮЗ 1 14 км 3/3 500 м
[Cb cap Ci ing]
+27.0 +22.5 76 +35 +35 очень
душно
1006.5 984.2 +38.9
21 17.04 З 1 14 км 4/0
[Ac trans Ci sp]
+32.4 +21.4 52 +40 +40 очень
душно
1009.0 987.0
00 18.04 ЮЗ 1 14 км 8/0
[Ac trans Ci sp]
+30.5 +23.5 66 +41 +41 опасность
перегрева
1008.5 986.4
03 18.04 Ю 1 14 км 8/0
[Ac trans Ci sp]
+30.0 +21.3 60 +38 +38 очень
душно
1008.3 986.2
06 18.04 ЮЗ 1 14 км 6/0
[Ac trans Cs]
+28.5 +25.1 82 +41 +41 опасность
перегрева
1010.1 987.8 +28.0
09 18.04 ЮЗ 1 14 км 8/0
[Ac trans Cs]
+32.0 +23.1 59 +42 +53 опасность
перегрева
1011.3 989.2
12 18.04 СЗ 2 14 км 4/1 500 м
[Cu med, cong Ci sp]
+36.4 +23.7 48 +47 +67 опасность
перегрева
1009.3 987.6
21 18.04 Ю 3 14 км зарница 8/1 900 м
[Cb cap Ac trans]
+33.2 +21.4 50 +41 +41 опасность
перегрева
1008.3 986.4
03 19.04 ЮЗ 1 14 км 8/0
[Ac trans Cs]
+29.5 +23.3 69 +40 +40 очень
душно
1008.2 986.0
06 19.04 ЮЗ 1 14 км 9/0
[Ac trans Cs]
+28.9 +24.1 75 +40 +40 очень
душно
1009.8 987.5 +27.8
09 19.04 Ю 2 14 км 8/0
[Ac trans Cs]
+31.0 +23.7 65 +42 +51 опасность
перегрева
1011.8 989.6
12 19.04 ЮЗ 2 14 км 8/0
[Ac trans Cs]
+35.5 +23.1 49 +46 +63 опасность
перегрева
1010.0 988.2
15 19.04 ЮВ 1 14 км 8/4 480 м
[Cu med, cong Cs]
+38.2 +23.2 42 +48 +55 опасность
перегрева
1007.3 985.8
18 19.04 ЮВ 1 14 км 9/0
[Ac trans Cs]
+36.0 +21.3 43 +44 +44 опасность
перегрева
1007.8 986.1 +38.5
21 19.04 ЮЗ 2 14 км 8/0
[Ac trans Cs]
+33.1 +23.5 57 +44 +44 опасность
перегрева
1009.9 987.9
03 20.04 ЮЗ 2 14 км 8/0
[Ac trans Cs]
+28.9 +24.0 75 +40 +40 очень
душно
1009.3 987.1
06 20.04 ЮЗ 1 14 км 8/0
[Ac trans Cs]
+29.0 +24.4 76 +41 +41 опасность
перегрева
1010.9 988.6 +28.5
12 20.04 Ю 3 14 км 8/8 480 м
[Cu med, cong Ci sp]
+35.2 +23.9 52 +47 +51 опасность
перегрева
1010.2 988.4
15 20.04 ЮВ 3 14 км 5/4 500 м
[Cu med, cong Ci sp]
+38.2 +22.3 40 +47 +53 опасность
перегрева
1006.6 985.1
21 20.04 ЮЗ 2 12 км 8/0
[Ac trans Cs]
+32.0 +21.6 54 +40 +40 очень
душно
1009.8 987.8
00 21.04 Ю 1 12 км 8/0
[Ac trans Cs]
+31.0 +20.4 53 +38 +38 очень
душно
1010.0 987.9
03 21.04 ЮЗ 2 12 км 8/0
[Ac trans Cs]
+29.3 +21.9 64 +38 +38 очень
душно
1009.4 987.2
06 21.04 ЮЗ 1 12 км 8/0
[Ac trans Cs]
+28.0 +22.0 70 +36 +36 очень
душно
1009.6 987.3 +27.4
09 21.04 ЮЗ 1 12 км 5/0
[Ac trans Ci sp]
+31.7 +23.2 61 +42 +54 опасность
перегрева
1010.6 988.5
12 21.04 ЮЗ 2 12 км 6/3 500 м
[Cu med, cong Ac trans Ci sp]
+36.0 +23.9 50 +47 +61 опасность
перегрева
1008.8 987.1
15 21.04 Ю 1 12 км 8/3 480 м
[Cu med, cong Ac trans Ci sp]
+39.0 +21.0 35 +45 +52 опасность
перегрева
1005.8 984.3
18 21.04 ЮЗ 1 14 км 8/3 360 м
[Cb cap Ac trans Cs]
+37.1 +21.8 41 +45 +45 опасность
перегрева
1005.7 984.1 +39.5
21 21.04 СЗ 3 12 км 8/0
[Ac trans Cs]
+33.0 +21.1 50 +41 +41 опасность
перегрева
1008.2 986.3
00 22.04 ЮЗ 3 12 км 8/0
[Ac trans Cs]
+29.8 +21.4 61 +38 +38 очень
душно
1009.7 987.5
03 22.04 ЮЗ 2 12 км 8/0
[Ac trans Cs]
+28.5 +22.2 69 +37 +37 очень
душно
1008.3 986.0
06 22.04 СВ 2 10 км 9/4 360 м
[Cb cap Ac trans]
+28.4 +22.9 72 +38 +38 очень
душно
1009.9 987.6 +27.3
09 22.04 ЮЗ 3 14 км 9/0
[Ac trans]
+32.4 +22.5 56 +42 +47 опасность
перегрева
1010.5 988.5
12 22.04 З 1 14 км 8/0
[Ac trans Cs]
+37.0 +21.4 41 +45 +62 опасность
перегрева
1008.7 987.0
15 22.04 СЗ 1 14 км 8/3 480 м
[Cu med, cong Ac trans Cs]
+39.7 +21.4 35 +47 +53 опасность
перегрева
1004.7 983.3
18 22.04 ЮЗ 1 14 км 8/3 900 м
[Cb cap Ac trans Cs]
+34.6 +22.1 48 +43 +43 опасность
перегрева
1004.7 983.0 +40.0
21 22.04 Ю 2 14 км зарница 8/3 360 м
[Cb cap Ac trans Cs]
+29.2 +21.3 62 +37 +37 очень
душно
1008.5 986.3
00 23.04 ЮЗ 1 14 км 9/0
[Ac trans Cs]
+29.4 +22.0 64 +38 +38 очень
душно
1008.5 986.3
06 23.04 ЮЗ 2 14 км 8/0
[Ac trans Cs]
+28.0 +25.9 88 +42 +42 опасность
перегрева
1008.9 986.6 +28.5
09 23.04 СВ 1 14 км гроза, ливневой дождь 9/9 360 м
[Cb cap]
+25.0 +22.6 87 +33 +34 очень
душно
1012.4 989.8
12 23.04 СВ 2 8000 м гроза, ливневой дождь 9/4 330 м
[Cb cap Ac As]
+22.8 +21.9 95 +31 +37 очень
душно
1014.9 992.1 34
15 23.04 СВ 1 8000 м гроза, ливневой дождь 9/4 330 м
[Cb cap Ac As]
+22.8 +22.3 97 +31 +35 очень
душно
1012.3 989.5
18 23.04 Ю 1 10 км 9/3 360 м
[Sc Ac trans Cs]
+24.5 +22.5 89 +32 +32 очень
душно
1014.8 992.1 +24.1 48

 

Местоположение метеостанции Йенди (Гана): широта 9.45 долгота -0.02 высота над уровнем моря 197 м.

В архиве по умолчанию представлена погода в Йенди за последнюю неделю. Архивные данные за месяц целиком и за предыдущие месяцы, начиная с января 2011 года, Вы можете получить, выбрав интересующий диапазон дат из раскрывающегося списка и нажав кнопку "Ввод!".


*Определитесь, кто Вы:
робот инопланетянин человек

Внимание! Время в таблицах - всемирное. Для получения местного времени необходимо прибавить поправку, которая равна 1 ч.

Смотрите также архив погоды в соседних городах и на ближайших метеорологических станциях:

Погода в Тамале (Гана) (91 км)
Погода в Манго (Того) (116 км)
Погода в Ньамтугу (Того) (128 км)
Погода в Каре (Того) (131 км)
Погода в Сокоде (Того) (139 км)
Погода в Дапаоне (Того) (163 км)
Погода в Кет-Крачи (Гана) (181 км)
Погода в Натитингу (Бенин) (181 км)
Погода в Навронго (Гана) (200 км)
Погода в По (Буркина-Фасо) (226 км)

Пояснения к столбцам:

Ветер - указаны скорость ветра в м/с - средняя за 10 мин, порывы в срок и между сроками (в фигурных скобках) и направление, откуда дует ветер: С - северный, СВ - северо-восточный, В - восточный, ЮВ - юго-восточный, Ю - южный, ЮЗ - юго-западный, З - западный, СЗ - северо-западный.
Видимость - горизонтальная дальность видимости в метрах или километрах. При видимости от 1 до 10 км при отсутствии осадков обычно наблюдается дымка, при ухудшении видимости до 1 км и менее - туман. В сухую погоду видимость может ухудшаться дымом, пылью или мглою.
Явления - указаны атмосферные явления, наблюдавшиеся в срок или в последний час перед сроком; фигурными скобками обозначены явления, наблюдавшиеся между сроками (за 1-3 часа до срока); квадратными скобками обозначены град или гололедные отложения с указанием их диаметра в мм.
Облачность - указаны через наклонную черту общая и нижняя облачность в баллах и высота нижней границы облаков в метрах; квадратными скобками обозначены формы облаков: Ci - перистые, Cs - перисто-слоистые, Cc - перисто-кучевые, Ac - высококучевые, As - высокослоистые, Sc - слоисто-кучевые, Ns - слоисто-дождевые, Cu - кучевые, Cb - кучево-дождевые. Подробнее классификацию облаков см. в Атласе облаков (PDF).
T - Температура воздуха - температура, измеренная на высоте 2 м над землей.
Td - Температура точки росы - температура, при понижении до которой содержащийся в воздухе водяной пар достигнет насыщения.
f - Относительная влажность воздуха - влажноcть воздуха, измеренная на высоте 2 м над землей.
Te - Эффективная температура - температура, которую ощущает одетый по сезону человек в тени. Характеристика душности погоды. При расчете учитывается влияние влажности воздуха и скорости ветра на теплоощущения человека.
Tes - Эффективная температура на солнце - температура, которую ощущает человек, с поправкой на солнечный нагрев. Характеристика знойности погоды. Зависит от высоты солнца над горизонтом, облачности и скорости ветра. Ночью, в пасмурную погоду, а также при ветре 12 м/с и более поправка равна нулю.
P - Атмосферное давление - приведенное к уровню моря атмосферное давление.
Po - Атмосферное давление - измеренное на уровне метеостанции атмосферное давление.
Tmin - Минимальная температура - минимум температуры воздуха на высоте 2 м над землей.
Tmax - Максимальная температура - максимум температуры воздуха на высоте 2 м над землей.
R - Количество осадков - Количество выпавших осадков за период времени, мм. При наведении курсора мыши на число - период времени, за который выпало указанное количество осадков.
R24 - Количество осадков - Количество выпавших осадков за 24 часа, мм.
S - Снежный покров - Высота снежного покрова, см. При наведении курсора мыши на число - состояние снежного покрова и степень покрытия местности в баллах.